DW6936 Weather Reports


Display with metric or nautical units.
time (UTC)temp
F
wind
direction
speed
MPH
gust
MPH
rain 1hr
in
rain 24hr
in
rain mn
in
humidity
%
barometer
mb
20171218100825 45 256 5.0 11.0 0.02 1.35 0.04 95 1012.7
20171218091823 47 151 6.0 8.0 0.03 1.41 0.03 96 1011.8
20171218090824 47 202 4.0 10.0 0.02 1.41 0.02 96 1011.8
20171218085823 47 174 5.0 13.0 0.02 1.42 0.02 96 1011.8
20171218082823 47 183 3.0 9.0 0.03 1.47 0.01 96 1011.4
20171218081822 48 181 4.0 11.0 0.03 1.48 0.00 96 1011.3
20171218073821 47 204 6.0 13.0 0.02 1.50 1.48 95 1011.4
20171218071821 47 202 7.0 14.0 0.03 1.51 1.47 95 1011.4
20171218070820 47 203 5.0 13.0 0.03 1.51 1.47 95 1011.3
20171218053818 48 214 8.0 12.0 0.05 1.47 1.41 96 1011.1
20171218050817 48 192 10.0 15.0 0.06 1.44 1.38 96 1011.2
20171218044816 48 175 6.0 16.0 0.08 1.42 1.36 97 1011.1
20171218040815 47 184 5.0 19.0 0.10 1.39 1.32 97 1011.3
20171218033814 47 200 3.0 11.0 0.08 1.34 1.26 97 1011.3
20171218031814 47 166 4.0 10.0 0.09 1.33 1.23 97 1011.1
20171218030814 47 193 4.0 12.0 0.09 1.32 1.22 97 1011.3
20171218022813 47 177 3.0 12.0 0.09 1.28 1.16 97 1011.4
20171218020812 47 169 3.0 14.0 0.08 1.26 1.13 97 1011.3
20171218015812 47 146 5.0 16.0 0.08 1.25 1.12 97 1011.2
20171218005810 46 181 10.0 14.0 0.09 1.17 1.04 97 1011.7
20171218004809 46 164 6.0 17.0 0.08 1.15 1.02 97 1011.8
20171218001809 46 152 5.0 16.0 0.09 1.11 0.98 97 1012.3
20171217235838 46 175 6.0 16.0 0.09 1.08 0.95 97 1012.5
20171217234808 45 133 6.0 12.0 0.10 1.07 0.94 97 1012.6
20171217225837 45 173 8.0 11.0 0.11 0.99 0.86 97 1013.3
20171217223807 45 146 9.0 13.0 0.11 0.96 0.83 97 1013.4
20171217211820 44 120 6.0 13.0 0.08 0.81 0.68 98 1014.7
20171217210819 44 141 4.0 10.0 0.08 0.79 0.66 98 1014.8
20171217203818 42 75 3.0 5.0 0.10 0.75 0.62 97 1015.5
20171217202818 42 51 0.0 3.0 0.11 0.74 0.61 97 1015.8
20171217195817 42 52 3.0 5.0 0.09 0.69 0.56 97 1016.3
20171217194817 42 47 0.0 4.0 0.08 0.67 0.54 97 1016.7
20171217191816 41 46 1.0 5.0 0.06 0.63 0.50 97 1017.0
20171217185816 41 47 1.0 3.0 0.05 0.60 0.47 97 1017.3
20171217184816 41 48 0.0 6.0 0.05 0.59 0.46 97 1017.6
20171217181815 41 47 1.0 5.0 0.05 0.57 0.44 97 1018.1
20171217180814 41 38 2.0 5.0 0.05 0.56 0.43 97 1018.1
20171217175814 41 38 0.0 5.0 0.06 0.55 0.42 97 1018.1
20171217174813 41 29 1.0 4.0 0.06 0.54 0.41 97 1018.2
20171217173813 41 28 2.0 5.0 0.06 0.53 0.40 97 1018.2
20171217172813 41 27 2.0 5.0 0.08 0.53 0.40 97 1018.3
20171217171813 41 27 2.0 9.0 0.08 0.52 0.39 97 1018.3
20171217164812 41 54 1.0 4.0 0.07 0.48 0.35 97 1018.4
20171217162812 41 56 2.0 3.0 0.05 0.45 0.32 97 1018.3
20171217161811 41 56 1.0 5.0 0.05 0.44 0.31 97 1018.2
20171217160811 41 61 1.0 3.0 0.05 0.43 0.30 97 1018.3
20171217152809 42 61 4.0 6.0 0.03 0.40 0.27 96 1018.5
20171217151810 42 92 1.0 7.0 0.02 0.39 0.26 96 1018.6
20171217142808 43 125 2.0 8.0 0.02 0.37 0.24 96 1018.9
20171217141808 43 134 4.0 11.0 0.02 0.37 0.24 96 1018.9
20171217133807 42 133 2.0 8.0 0.01 0.36 0.23 97 1019.9
20171217125836 42 144 2.0 7.0 0.01 0.35 0.22 97 1019.6
20171217123805 42 142 0.0 9.0 0.02 0.35 0.22 97 1020.0
20171217122805 42 90 5.0 7.0 0.02 0.35 0.22 97 1020.0
20171217121804 42 90 1.0 4.0 0.02 0.35 0.22 97 1020.2
20171217120804 42 90 1.0 5.0 0.01 0.34 0.21 97 1020.3
20171217114833 42 88 2.0 4.0 0.00 0.33 0.20 96 1020.7
20171217113833 42 88 0.0 3.0 0.00 0.33 0.20 96 1020.8
20171217110802 42 88 2.0 3.0 0.01 0.33 0.20 96 1020.8
20171217105832 42 88 1.0 3.0 0.02 0.33 0.20 96 1021.0
20171217104802 42 88 0.0 3.0 0.03 0.33 0.20 96 1021.2